Weather History for Oak Ridge, TN

Change the Weather History Date:

Wednesday, March 12, 2014

  Actual Average (KTYS) Record (KTYS)
Temperature  
Mean Temperature 50 °F 49 °F  
Max Temperature 69 °F 60 °F 81 °F (1911)
Min Temperature 34 °F 38 °F 18 °F (1969)
Degree Days  
Heating Degree Days 15 16  
Month to date heating degree days 209  
Since 1 July heating degree days 3105  
Cooling Degree Days 0 0  
Month to date cooling degree days 0  
Year to date cooling degree days 0  
Moisture  
Dew Point 44 °F    
Average Humidity 75    
Maximum Humidity 96    
Minimum Humidity 54    
Precipitation  
Precipitation 0.14 in 0.13 in 3.25 in (1963)
Month to date precipitation 1.65  
Year to date precipitation 10.23  
Snow  
Snow 0.00 in 0.00 in - ()
Month to date snowfall 0.4  
Since 1 July snowfall 5.5  
Snow Depth -    
Sea Level Pressure  
Sea Level Pressure 29.68 in    
Wind  
Wind Speed 8 mph (West)    
Max Wind Speed 18 mph    
Max Gust Speed 38 mph    
Visibility 8 miles    
Events Rain , Snow    
T = Trace of Precipitation, MM = Missing Value Source: NWS Daily Summary

Daily Weather History Graph

Daily Weather History Graph

Search for Another Location

Airport:

Trip Planner

Search our weather history database for the weather conditions in past years. The results will help you decide how hot, cold, wet, or windy it might be!

Date:

Astronomy

Mar. 12, 2014 Rise Set
Actual Time 7:51 AM EDT 7:41 PM EDT
Civil Twilight 7:26 AM EDT 8:07 PM EDT
Nautical Twilight 6:56 AM EDT 8:37 PM EDT
Astronomical Twilight 6:26 AM EDT 9:07 PM EDT
Moon 4:16 PM EDT (3/12) 5:17 AM EDT (3/12)
Length of Visible Light 12h 40m
Length of Day
11h 49m
Waxing Gibbous, 85% of the Moon is Illuminated
Mar 12
Waxing Gibbous
Mar 16
Full
Mar 23
Last Quarter
Mar 30
New
Apr 7
First Quarter

Hourly Weather History & Observations

Time (EDT) Temp. Windchill Dew Point Humidity Pressure Visibility Wind Dir Wind Speed Gust Speed Precip Events Conditions
12:53 AM 64.0 °F - 46.9 °F 54% 29.63 in 10.0 mi SW 3.5 mph - N/A   Overcast
1:53 AM 63.0 °F - 48.0 °F 58% 29.60 in 10.0 mi Calm Calm - N/A   Mostly Cloudy
2:53 AM 61.0 °F - 48.0 °F 62% 29.57 in 10.0 mi SW 3.5 mph - N/A   Scattered Clouds
3:53 AM 64.9 °F - 51.1 °F 61% 29.54 in 10.0 mi SW 5.8 mph - N/A   Overcast
4:53 AM 64.9 °F - 53.1 °F 65% 29.51 in 10.0 mi SSW 10.4 mph 16.1 mph N/A   Overcast
5:35 AM 62.1 °F - 55.9 °F 80% 29.54 in 4.0 mi SSW 9.2 mph 19.6 mph 0.01 in Rain Light Rain
5:53 AM 61.0 °F - 57.0 °F 87% 29.51 in 6.0 mi SSW 10.4 mph 16.1 mph 0.02 in Rain Light Rain
6:36 AM 61.0 °F - 57.9 °F 90% 29.53 in 5.0 mi SSW 9.2 mph 18.4 mph 0.00 in Rain Light Rain
6:53 AM 61.0 °F - 57.9 °F 90% 29.50 in 5.0 mi SSW 11.5 mph 19.6 mph 0.02 in Rain Light Rain
7:44 AM 60.1 °F - 57.9 °F 93% 29.51 in 3.0 mi Variable 6.9 mph - 0.02 in Rain Light Rain
7:53 AM 60.1 °F - 59.0 °F 96% 29.48 in 5.0 mi SSW 6.9 mph - 0.03 in Rain Light Rain
8:20 AM 61.0 °F - 57.9 °F 90% 29.50 in 6.0 mi SSW 8.1 mph 23.0 mph 0.00 in Rain Light Rain
8:50 AM 60.8 °F - 57.2 °F 88% 29.50 in 2.5 mi SSW 8.1 mph 16.1 mph 0.01 in Rain Light Rain
8:53 AM 61.0 °F - 57.9 °F 90% 29.47 in 2.0 mi SSW 11.5 mph 23.0 mph 0.01 in Rain Light Rain
9:20 AM 60.1 °F - 57.9 °F 93% 29.50 in 5.0 mi SW 8.1 mph 21.9 mph 0.02 in Rain Light Rain
9:53 AM 62.1 °F - 59.0 °F 90% 29.47 in 10.0 mi Variable 6.9 mph 19.6 mph 0.03 in   Overcast
10:49 AM 64.4 °F - 57.2 °F 77% 29.48 in 10.0 mi SSW 9.2 mph 20.7 mph N/A   Overcast
10:53 AM 64.0 °F - 57.9 °F 80% 29.46 in 10.0 mi SSW 10.4 mph 18.4 mph N/A   Overcast
11:26 AM 66.0 °F - 57.9 °F 75% 29.47 in 10.0 mi Variable 5.8 mph 17.3 mph N/A   Mostly Cloudy
11:53 AM 66.9 °F - 57.0 °F 70% 29.43 in 10.0 mi SW 15.0 mph 29.9 mph N/A   Mostly Cloudy
12:48 PM 57.2 °F - 51.8 °F 82% 29.52 in 10.0 mi West 15.0 mph 38.0 mph 0.02 in   Overcast
12:53 PM 57.0 °F - 51.1 °F 81% 29.51 in 10.0 mi West 15.0 mph 38.0 mph 0.02 in   Overcast
1:18 PM 55.9 °F - 44.1 °F 64% 29.54 in 10.0 mi West 15.0 mph 32.2 mph N/A   Scattered Clouds
1:53 PM 54.0 °F - 41.0 °F 62% 29.55 in 10.0 mi West 16.1 mph 31.1 mph N/A   Scattered Clouds
2:06 PM 51.1 °F - 41.0 °F 68% 29.58 in 10.0 mi WNW 18.4 mph 33.4 mph N/A   Mostly Cloudy
2:53 PM 48.0 °F - 35.1 °F 61% 29.65 in 10.0 mi WNW 12.7 mph 28.8 mph N/A   Mostly Cloudy
3:53 PM 46.9 °F - 33.1 °F 59% 29.70 in 10.0 mi West 13.8 mph 27.6 mph N/A   Overcast
4:04 PM 46.9 °F - 33.1 °F 59% 29.72 in 10.0 mi WNW 8.1 mph 21.9 mph N/A   Overcast
4:53 PM 46.0 °F 41.0 °F 34.0 °F 63% 29.76 in 10.0 mi WNW 10.4 mph 20.7 mph 0.00 in Rain Light Rain
5:53 PM 42.1 °F 37.1 °F 34.0 °F 73% 29.82 in 9.0 mi WNW 8.1 mph 21.9 mph 0.00 in Rain Light Rain
6:50 PM 41.0 °F 35.8 °F 33.8 °F 76% 29.85 in 7.0 mi WNW 8.1 mph 18.4 mph 0.00 in Rain Light Rain
6:53 PM 41.0 °F 35.8 °F 33.1 °F 73% 29.86 in 8.0 mi NW 8.1 mph 18.4 mph 0.00 in Rain Light Rain
7:00 PM 41.0 °F 39.0 °F 33.1 °F 73% 29.85 in 10.0 mi NW 3.5 mph - 0.00 in Rain Light Rain
7:11 PM 41.0 °F 37.1 °F 33.1 °F 73% 29.86 in 10.0 mi NW 5.8 mph - 0.00 in Rain Light Rain
7:53 PM 39.0 °F 35.7 °F 33.1 °F 79% 29.89 in 8.0 mi Variable 4.6 mph - 0.01 in Rain Light Rain
8:53 PM 39.0 °F 34.8 °F 30.0 °F 70% 29.94 in 10.0 mi Variable 5.8 mph - 0.00 in Rain Light Rain
9:53 PM 39.0 °F 33.4 °F 25.0 °F 57% 29.97 in 10.0 mi WNW 8.1 mph - 0.00 in   Overcast
10:33 PM 35.1 °F 27.9 °F 28.9 °F 78% 29.99 in 1.8 mi West 9.2 mph 20.7 mph 0.00 in Snow Light Snow
10:40 PM 34.0 °F 28.8 °F 30.0 °F 85% 29.99 in 1.2 mi WNW 5.8 mph 16.1 mph 0.00 in Snow Light Snow
10:45 PM 35.1 °F 31.0 °F 30.0 °F 82% 29.99 in 3.0 mi WNW 4.6 mph - 0.00 in Snow Light Snow
10:53 PM 35.1 °F - 30.0 °F 82% 30.00 in 9.0 mi Calm Calm - 0.00 in   Mostly Cloudy
11:24 PM 34.0 °F 27.2 °F 28.9 °F 82% 30.01 in 1.8 mi NNW 8.1 mph - 0.00 in Snow Light Snow
11:30 PM 35.1 °F 27.4 °F 27.0 °F 72% 30.01 in 3.0 mi NNW 10.4 mph - 0.00 in Snow Light Snow
11:53 PM 35.1 °F 30.1 °F 25.0 °F 67% 30.01 in 10.0 mi NNW 5.8 mph - 0.00 in   Mostly Cloudy